Volver al catálogo

COSMOS 2227

ActivoMilitarLEO
NORAD 22284·PAYLOAD·🇷🇺 Russia

Lanzado Dec 25, 1992 desde Baikonur Cosmodrome

Loading…

Próximos Pases (próximas 24 horas)

TLE

ActualizadoSource: Space-Track

Época: Sep 14, 2026, 00:25 UTC

1 22284U 92093A   26257.01769577  .00000127  00000-0  92013-4 0  9994
2 22284  70.9826 356.7303 0016466 109.4311 250.8592 14.13795378739380

Sigue COSMOS 2227 en tiempo real con AllMySat

Download on the App Store